This is the latest recevied weather packets stored in our database for station/object KO4DYK. If no packets are shown the sender has not sent any weather packets the latest 10 day(s).
| Time | Temp. | Humidity | Pressure | Rain* | Wind** | Luminosity | Snow |
|---|---|---|---|---|---|---|---|
| 1778004969 | 16.67° C | 99% | 1013.8 hPa | 0 mm | - | 60 W/m² | - |
| 1778004667 | 16.67° C | 99% | 1014 hPa | 0 mm | - | 57 W/m² | - |
| 1778004362 | 16.67° C | 99% | 1014.1 hPa | 0 mm | - | 44 W/m² | - |
| 1778004060 | 16.11° C | 99% | 1013.9 hPa | 0 mm | - | 44 W/m² | - |
| 1778003756 | 16.11° C | 99% | 1014.1 hPa | 0 mm | - | 32 W/m² | - |
| 1778003453 | 16.11° C | 99% | 1013.9 hPa | 0 mm | - | 60 W/m² | - |
| 1778003149 | 16.11° C | 99% | 1014 hPa | 0 mm | - | 85 W/m² | - |
| 1778002845 | 16.11° C | 99% | 1014 hPa | 0 mm | - | 110 W/m² | - |
| 1778002542 | 16.11° C | 99% | 1014 hPa | 1.27 mm | - | 122 W/m² | - |
| 1778002239 | 16.11° C | 99% | 1014.4 hPa | 1.27 mm | - | 106 W/m² | - |
| 1778001937 | 16.11° C | 99% | 1014.4 hPa | 0 mm | - | 83 W/m² | - |
| 1778001633 | 15.56° C | 99% | 1014.6 hPa | 3.05 mm | - | 99 W/m² | - |
| 1778001328 | 15.56° C | 99% | 1014.7 hPa | 3.05 mm | - | 91 W/m² | - |
| 1778001025 | 15.56° C | 99% | 1014.4 hPa | 3.05 mm | - | 53 W/m² | - |
| 1778000722 | 15.56° C | 99% | 1014.6 hPa | 3.05 mm | - | 69 W/m² | - |
| 1778000418 | 15.56° C | 99% | 1014.9 hPa | 3.05 mm | - | 96 W/m² | - |
| 1778000114 | 15.56° C | 99% | 1014.9 hPa | 6.1 mm | - | 79 W/m² | - |
| 1777999810 | 15.56° C | 99% | 1014.3 hPa | 7.87 mm | - | 100 W/m² | - |
| 1777999506 | 15.56° C | 99% | 1013.8 hPa | 7.87 mm | - | 115 W/m² | - |
| 1777999204 | 15.56° C | 99% | 1014.2 hPa | 8.89 mm | - | 54 W/m² | - |
| 1777998902 | 15° C | 99% | 1015.1 hPa | 8.89 mm | - | 36 W/m² | - |
| 1777998602 | 15° C | 99% | 1015.6 hPa | 9.65 mm | - | 28 W/m² | - |
| 1777998297 | 15° C | 99% | 1015.8 hPa | 10.67 mm | - | 24 W/m² | - |
| 1777997994 | 15° C | 99% | 1015.8 hPa | 7.87 mm | - | 17 W/m² | - |
| 1777997690 | 15° C | 99% | 1015.9 hPa | 8.89 mm | - | 21 W/m² | - |
* Rain latest hour (hover to see other rain measurements)
** Current wind speed in m/s (hover to see current wind gust speed)